Tracking 35331 objects as of 16-Sep-2026
HD Live streaming from Space Station
objects crossing your sky now

COSMOS 886 DEB

Track COSMOS 886 DEB now!
10-day predictions


NORAD ID: 9651
Int'l Code: 1976-126H
Launch date: December 27, 1976
Source: Commonwealth of Independent States (former USSR) (CIS)
Launch site: TYURATAM MISSILE AND SPACE COMPLEX (TTMTR)

Note: This is SATELLITE DEBRIS
Your satellite tracking list
Your tracking list is empty




NASA's NSSDC Master Catalog

Two Line Element Set (TLE):
1 09651U 76126H   26257.71508186  .00000621  00000-0  23884-3 0  9998
2 09651  65.7914  48.7489 0776313  55.4005 311.7792 13.34884650363971
Source of the keplerian elements: AFSPC